When you browse on this site, cookies collect data to enhance your experience and personalize the content and advertising you see.
Visit our Privacy Policy to learn more. By continuing to use the site, you agree to this use of cookies and data.
  • In Hungary
  • List of Countries
  • For 7 days
  • Water Temperature
  • Weather Map
  • News
  • Weather Widgets
  • user-avatar
    Login

    Hourly Weather Ammanford

    Today, 7 December, Saturday

    Time Temperature Precipitation Wind Pressure Humidity
    00:00 +5°C° 0 mm 4 mps 741 mmHg 93%
    01:00 +5°C° 0 mm 3 mps 742 mmHg 93%
    02:00 +5°C° 0 mm 3 mps 742 mmHg 94%
    03:00 +5°C° 0 mm 3 mps 742 mmHg 94%
    04:00 +4°C° 0 mm 3 mps 742 mmHg 94%
    05:00 +4°C° 0 mm 3 mps 743 mmHg 95%
    06:00 +4°C° 0 mm 3 mps 743 mmHg 95%
    07:00 +4°C° 0 mm 3 mps 743 mmHg 94%
    08:00 +5°C° 0 mm 3 mps 743 mmHg 94%
    09:00 +5°C° 0 mm 3 mps 743 mmHg 94%
    10:00 +6°C° 0 mm 4 mps 743 mmHg 92%
    11:00 +7°C° 0 mm 4 mps 743 mmHg 90%
    12:00 +8°C° 0 mm 5 mps 743 mmHg 88%
    13:00 +8°C° 0 mm 5 mps 742 mmHg 89%
    14:00 +8°C° 0 mm 5 mps 742 mmHg 91%
    15:00 +8°C° 0 mm 6 mps 741 mmHg 92%
    16:00 +8°C° 0 mm 6 mps 741 mmHg 93%
    17:00 +8°C° 0 mm 6 mps 740 mmHg 94%
    18:00 +8°C° 0 mm 6 mps 740 mmHg 95%
    19:00 +8°C° 0 mm 7 mps 739 mmHg 94%
    20:00 +7°C° 0 mm 8 mps 738 mmHg 94%
    21:00 +7°C° 0 mm 9 mps 736 mmHg 93%
    22:00 +8°C° 2.2 mm 10 mps 735 mmHg 94%
    23:00 +8°C° 2.2 mm 11 mps 734 mmHg 96%

    Tomorrow, 8 December, Sunday

    Time Temperature Precipitation Wind Pressure Humidity
    00:00 +9°C° 2.2 mm 12 mps 733 mmHg 97%
    01:00 +8°C° 0.4 mm 11 mps 733 mmHg 92%
    02:00 +8°C° 0.4 mm 10 mps 733 mmHg 87%
    03:00 +7°C° 0.4 mm 9 mps 733 mmHg 82%
    04:00 +6°C° 0.1 mm 9 mps 734 mmHg 82%
    05:00 +5°C° 0.1 mm 9 mps 734 mmHg 83%
    06:00 +5°C° 0.1 mm 9 mps 734 mmHg 83%
    07:00 +5°C° 0.1 mm 9 mps 734 mmHg 81%
    08:00 +5°C° 0.1 mm 9 mps 734 mmHg 80%
    09:00 +3°C° 0.1 mm 10 mps 734 mmHg 78%
    10:00 +5°C° 0.3 mm 10 mps 734 mmHg 76%
    11:00 +4°C° 0.3 mm 11 mps 734 mmHg 75%
    12:00 +4°C° 0.3 mm 12 mps 733 mmHg 74%
    13:00 +4°C° 0.3 mm 12 mps 733 mmHg 74%
    14:00 +4°C° 0.3 mm 12 mps 732 mmHg 74%
    15:00 +3°C° 0.3 mm 12 mps 732 mmHg 74%
    16:00 +3°C° 0.2 mm 12 mps 731 mmHg 76%
    17:00 +3°C° 0.2 mm 13 mps 730 mmHg 77%
    18:00 +3°C° 0.2 mm 13 mps 729 mmHg 79%
    19:00 +3°C° 0.2 mm 13 mps 728 mmHg 78%
    20:00 +4°C° 0.2 mm 13 mps 727 mmHg 78%
    21:00 +4°C° 0.2 mm 13 mps 727 mmHg 77%
    22:00 +4°C° 0.5 mm 14 mps 727 mmHg 76%
    23:00 +4°C° 0.5 mm 15 mps 727 mmHg 75%

    Day after tomorrow, 9 December, Monday

    Time Temperature Precipitation Wind Pressure Humidity
    00:00 +4°C° 0.5 mm 16 mps 728 mmHg 74%
    01:00 +4°C° 0.4 mm 16 mps 729 mmHg 75%
    02:00 +4°C° 0.4 mm 16 mps 731 mmHg 77%
    03:00 +4°C° 0.4 mm 15 mps 732 mmHg 78%
    04:00 +4°C° 0.1 mm 15 mps 734 mmHg 77%
    05:00 +4°C° 0.1 mm 14 mps 736 mmHg 76%
    06:00 +3°C° 0.1 mm 13 mps 737 mmHg 75%
    07:00 +3°C° 0 mm 12 mps 739 mmHg 74%
    08:00 +3°C° 0 mm 11 mps 740 mmHg 74%
    09:00 +3°C° 0 mm 10 mps 742 mmHg 73%
    10:00 +3°C° 0 mm 10 mps 743 mmHg 72%
    11:00 +3°C° 0 mm 10 mps 744 mmHg 70%
    12:00 +5°C° 0 mm 10 mps 745 mmHg 69%
    13:00 +3°C° 0 mm 9 mps 746 mmHg 70%
    14:00 +4°C° 0 mm 8 mps 747 mmHg 71%
    15:00 +4°C° 0 mm 8 mps 747 mmHg 72%
    16:00 +3°C° 0 mm 6 mps 748 mmHg 75%
    17:00 +4°C° 0 mm 4 mps 749 mmHg 78%
    18:00 +4°C° 0 mm 2 mps 749 mmHg 81%
    19:00 +4°C° 0 mm 2 mps 750 mmHg 82%
    20:00 +4°C° 0 mm 1 mps 750 mmHg 83%
    21:00 +4°C° 0 mm 1 mps 750 mmHg 84%
    22:00 +3°C° 0 mm 2 mps 750 mmHg 85%
    23:00 +3°C° 0 mm 2 mps 750 mmHg 86%

    10 December, Tuesday

    Time Temperature Precipitation Wind Pressure Humidity
    00:00 +2°C° 0 mm 3 mps 750 mmHg 86%
    01:00 +3°C° 0 mm 4 mps 749 mmHg 88%
    02:00 +3°C° 0 mm 5 mps 748 mmHg 89%
    03:00 +4°C° 0 mm 6 mps 747 mmHg 90%
    04:00 +4°C° 0.1 mm 7 mps 746 mmHg 90%
    05:00 +5°C° 0.1 mm 8 mps 745 mmHg 91%
    06:00 +5°C° 0.1 mm 9 mps 744 mmHg 91%
    07:00 +5°C° 1.9 mm 10 mps 742 mmHg 92%
    08:00 +6°C° 1.9 mm 10 mps 741 mmHg 93%
    09:00 +6°C° 1.9 mm 11 mps 740 mmHg 94%
    10:00 +7°C° 1.8 mm 11 mps 739 mmHg 95%
    11:00 +7°C° 1.8 mm 11 mps 738 mmHg 96%
    12:00 +8°C° 1.8 mm 11 mps 737 mmHg 96%
    13:00 +8°C° 0.4 mm 11 mps 735 mmHg 95%
    14:00 +9°C° 0.4 mm 12 mps 734 mmHg 94%
    15:00 +9°C° 0.4 mm 12 mps 732 mmHg 93%
    16:00 +7°C° 2.9 mm 12 mps 732 mmHg 93%
    17:00 +5°C° 2.9 mm 12 mps 733 mmHg 92%
    18:00 +3°C° 2.9 mm 11 mps 733 mmHg 91%
    19:00 +2°C° 0.4 mm 10 mps 735 mmHg 87%
    20:00 +2°C° 0.4 mm 9 mps 736 mmHg 83%
    21:00 +2°C° 0.4 mm 8 mps 737 mmHg 79%
    22:00 +1°C° 0 mm 8 mps 738 mmHg 79%
    23:00 +2°C° 0 mm 7 mps 738 mmHg 79%

    11 December, Wednesday

    Time Temperature Precipitation Wind Pressure Humidity
    00:00 +2°C° 0 mm 7 mps 739 mmHg 79%
    01:00 +2°C° 0 mm 6 mps 739 mmHg 79%
    02:00 +2°C° 0 mm 6 mps 739 mmHg 79%
    03:00 +2°C° 0 mm 6 mps 739 mmHg 80%
    04:00 +2°C° 0.5 mm 7 mps 739 mmHg 81%
    05:00 +2°C° 0.5 mm 7 mps 738 mmHg 82%
    06:00 +2°C° 0.5 mm 8 mps 738 mmHg 84%
    07:00 +2°C° 0.5 mm 8 mps 738 mmHg 85%
    08:00 +1°C° 0.5 mm 8 mps 737 mmHg 86%
    09:00 +1°C° 0.5 mm 8 mps 737 mmHg 87%
    10:00 +2°C° 0.5 mm 8 mps 737 mmHg 84%
    11:00 +2°C° 0.5 mm 9 mps 736 mmHg 82%
    12:00 +2°C° 0.5 mm 9 mps 736 mmHg 79%
    13:00 +2°C° 0.2 mm 9 mps 736 mmHg 78%
    14:00 +2°C° 0.2 mm 8 mps 736 mmHg 77%
    15:00 +1°C° 0.2 mm 8 mps 736 mmHg 77%
    16:00 +2°C° 0.1 mm 7 mps 737 mmHg 78%
    17:00 0°C° 0.1 mm 7 mps 737 mmHg 80%
    18:00 +1°C° 0.1 mm 6 mps 737 mmHg 82%
    19:00 +1°C° 0 mm 6 mps 737 mmHg 82%
    20:00 +1°C° 0 mm 6 mps 738 mmHg 82%
    21:00 0°C° 0 mm 7 mps 738 mmHg 83%
    22:00 +2°C° 0 mm 7 mps 737 mmHg 84%
    23:00 +2°C° 0 mm 7 mps 737 mmHg 85%

    12 December, Thursday

    Time Temperature Precipitation Wind Pressure Humidity
    00:00 +3°C° 0 mm 7 mps 736 mmHg 86%
    01:00 +3°C° 0.9 mm 9 mps 735 mmHg 87%
    02:00 +4°C° 0.9 mm 11 mps 734 mmHg 89%
    03:00 +4°C° 0.9 mm 13 mps 733 mmHg 90%
    04:00 +5°C° 0.5 mm 12 mps 731 mmHg 90%
    05:00 +5°C° 0.5 mm 12 mps 730 mmHg 90%
    06:00 +5°C° 0.5 mm 12 mps 729 mmHg 89%
    07:00 +5°C° 1.5 mm 13 mps 727 mmHg 90%
    08:00 +5°C° 1.5 mm 13 mps 725 mmHg 92%
    09:00 +5°C° 1.5 mm 14 mps 723 mmHg 93%
    10:00 +7°C° 2.7 mm 13 mps 722 mmHg 90%
    11:00 +7°C° 2.7 mm 12 mps 721 mmHg 88%
    12:00 +8°C° 2.7 mm 11 mps 720 mmHg 86%
    13:00 +7°C° 0.6 mm 10 mps 720 mmHg 87%
    14:00 +7°C° 0.6 mm 10 mps 719 mmHg 88%
    15:00 +6°C° 0.6 mm 9 mps 719 mmHg 89%
    16:00 +6°C° 0.7 mm 9 mps 718 mmHg 88%
    17:00 +6°C° 0.7 mm 9 mps 717 mmHg 86%
    18:00 +6°C° 0.7 mm 9 mps 716 mmHg 85%
    19:00 +5°C° 1.3 mm 10 mps 716 mmHg 84%
    20:00 +3°C° 1.3 mm 12 mps 716 mmHg 84%
    21:00 +1°C° 1.3 mm 14 mps 716 mmHg 83%
    22:00 +1°C° 0.3 mm 13 mps 716 mmHg 81%
    23:00 0°C° 0.3 mm 13 mps 715 mmHg 79%
    Show more